Location: Skymont Scout Reservation
(35.4344°N, 85.8742°W)
Time: 08:53:51
(UTC-05:00)

ISS - All Passes

Search period start: 27 May 2015 00:00
Search period end: 06 June 2015 00:00
Orbit: 399 x 404 km, 51.6° (Epoch: 27 May)

Date Brightness Start Highest point End Pass type
(mag) Time Alt. Az. Time Alt. Az. Time Alt. Az.
27 May - 06:15:36 10° NW 06:18:48 53° NE 06:22:01 10° ESE daylight
27 May - 07:53:43 10° WSW 07:54:55 11° SW 07:56:00 10° SSW daylight
27 May - 22:52:24 10° SW 22:55:38 87° NW 22:58:53 10° NE night (unlit)
28 May - 00:31:01 10° NW 00:32:29 12° NNW 00:33:55 10° N visible
28 May - 05:22:38 10° NNW 05:25:29 27° NE 05:28:21 10° E daylight
28 May - 06:59:07 10° WNW 07:01:50 24° SW 07:04:31 10° S daylight
28 May - 21:59:25 10° SSW 22:02:27 39° SE 22:05:31 10° ENE night (unlit)
28 May - 23:36:33 10° W 23:39:00 19° NNW 23:41:25 10° NNE visible
29 May - 04:29:54 10° NNW 04:32:03 16° NNE 04:34:15 10° ENE visible
29 May - 06:05:30 10° WNW 06:08:42 54° SW 06:11:53 10° SSE daylight
29 May - 21:07:03 10° S 21:09:20 18° SE 21:11:41 10° E night (unlit)
29 May - 22:42:35 10° WSW 22:45:35 33° NW 22:48:35 10° NNE visible
30 May - 03:37:43 10° N 03:38:30 11° NNE 03:39:22 10° NE visible
30 May - 05:12:14 10° NW 05:15:28 65° NE 05:18:43 10° SE daylight
30 May - 21:49:03 10° SW 21:52:16 71° NW 21:55:31 10° NE visible
30 May - 23:28:09 10° NW 23:29:13 11° NNW 23:30:12 10° N visible
31 May - 04:19:11 10° NNW 04:22:09 31° NE 04:25:07 10° E visible
31 May - 05:55:56 10° W 05:58:26 20° SW 06:00:52 10° S daylight
31 May - 20:55:54 10° SSW 20:59:02 49° SE 21:02:11 10° ENE visible
31 May - 22:33:23 10° WNW 22:35:39 17° NNW 22:37:53 10° NNE visible
01 Jun - 03:26:21 10° NNW 03:28:42 18° NNE 03:31:05 10° ENE visible
01 Jun - 05:02:09 10° WNW 05:05:17 44° SW 05:08:23 10° SSE visible
01 Jun - 20:03:20 10° S 20:05:52 22° SE 20:08:29 10° ENE daylight
01 Jun - 21:39:18 10° W 21:42:11 29° NW 21:45:04 10° NNE visible
02 Jun - 02:33:54 10° N 02:35:09 12° NNE 02:36:28 10° NE visible
02 Jun - 04:08:47 10° NW 04:12:02 79° NE 04:15:18 10° SE visible
02 Jun - 19:12:22 10° SE 19:12:44 10° SE 19:13:16 10° ESE daylight
02 Jun - 20:45:37 10° WSW 20:48:48 58° NW 20:52:01 10° NE visible
02 Jun - 22:25:33 10° NNW 22:25:50 10° NNW 22:26:01 10° NNW visible
03 Jun - 03:15:39 10° NNW 03:18:42 36° NE 03:21:46 10° ESE visible
03 Jun - 04:52:42 10° W 04:54:55 17° SW 04:57:04 10° S visible
03 Jun - 19:52:21 10° SW 19:55:32 60° SE 19:58:44 10° NE daylight
03 Jun - 21:30:10 10° WNW 21:32:13 15° NNW 21:34:13 10° N visible
04 Jun - 02:22:43 10° NNW 02:25:14 21° NNE 02:27:48 10° E visible
04 Jun - 03:58:43 10° WNW 04:01:45 36° SW 04:04:45 10° SSE visible
04 Jun - 18:59:34 10° S 19:02:18 26° SE 19:05:06 10° ENE daylight
04 Jun - 20:35:56 10° W 20:38:41 25° NNW 20:41:27 10° NNE visible
05 Jun - 01:30:06 10° N 01:31:40 13° NNE 01:33:19 10° NE visible
05 Jun - 03:05:14 10° NW 03:08:30 85° SW 03:11:45 10° SE night (unlit)
05 Jun - 18:07:46 10° SSE 18:09:08 12° SE 18:10:38 10° E daylight
05 Jun - 19:42:07 10° WSW 19:45:15 48° NW 19:48:25 10° NE daylight
